Find Starlink 36708

NORAD ID: 67713 Int'l Des: 2026-025 Owner: SPXS Country: US Constellation: starlink operational
LEOCIRCULARRETROGRADE

現在のビュー

3D地球を読み込み中...

About Starlink 36708

Starlink 36708 (NORAD 67713) is a starlink constellation satellite (v2 mini) launched Feb 7, 2026 by SPXS of US. It operates in LEO, CIRCULAR, RETROGRADE orbit with a mass of 575.00 kg.

Starlink 36708について

説明を読み込み中...

次回通過

Passes for default location (London). Set your location on the main map for personalized predictions.

高度履歴

Loading altitude history...

軌道要素

1 67713U 26025W 26195.58606603 .00008915 00000-0 27815-3 0 9995
2 67713 97.2852 305.6273 0001308 75.4034 284.7354 15.33443512 25405
Epoch: Jul 14, 2026 • Age: 5 hours

現在のステータス

高度 474.3 km
遠地点 / 近地点 N/A
速度 7.63 km/s
衛星直下点 55.64°N, 85.64°W
打ち上げ日 Feb 7, 2026
運用期間 0.4 years
タイプ internet

技術仕様

分類 Payload
質量 575.00 kg
乾燥質量 530.00 kg
総質量 575.00 kg
長さ 0.30 m
直径 4.10 m
スパン 29.00 m
形状 Box + pan
製造者 SPXS
バスタイプ Starlink V2MO
フェーズステータス In Orbit
所有者/国 SPXS/US

Most Searched